weather.gov     
National Weather Service

Regional Weather Roundup
NWS Homepage
This page is being discontinued on March 12, 2014.
The same data is available at this site. Please update your bookmarks.
Thank you, and we apologize for the inconvenience.
Please send an email to SR-SRH.Webmaster@noaa.gov with any concerns.


Current Version
Previous Version:    01  02  03  04  05  06  07  08  09  10  11  12  13  14  15  16  17  18  19  20  21  22  23  24  25  26  
[Printable]
375
ASUS41 KOKX 250505
RWROKX

REGIONAL WEATHER ROUNDUP
NATIONAL WEATHER SERVICE NEW YORK NY
100 AM EDT FRI JUL 25 2014

NOTE: "FAIR" INDICATES FEW OR NO CLOUDS BELOW 12,000 FEET WITH NO
SIGNIFICANT WEATHER AND/OR OBSTRUCTIONS TO VISIBILITY.

NYZ071-072-176-178-NJZ106-104-250600-
NEW YORK CITY METRO AREA


CITY           SKY/WX    TMP DP  RH WIND       PRES   REMARKS
CENTRAL PARK   MOCLDY    70  52  52 VRB5      29.95R
LAGUARDIA APRT MOCLDY    72  57  60 N6        29.91R
KENNEDY INTL   MOCLDY    73  56  54 N14       29.92R
NEWARK/LIBERTY MOCLDY    71  52  50 N10       29.92R
BRNX BOT. GARD   N/A     70  55  60 NW8       29.94R
TETERBORO      MOCLDY    70  52  52 NW6       29.92R
$$

NYZ177-179-078>081-250600-
LONG ISLAND NEW YORK

CITY           SKY/WX    TMP DP  RH WIND       PRES   REMARKS
FARMINGDALE    MOCLDY    69  57  65 N10       29.91R
ISLIP          MOCLDY    71  60  68 N8        29.88S
SHIRLEY        CLOUDY    70  61  73 CALM      29.90R
WESTHAMPTON    CLOUDY    65  63  93 CALM      29.91S
MONTAUK POINT    N/A     67  63  87 CALM      29.91S
$$

NYZ052-065-067-250600-
HUDSON VALLEY

CITY           SKY/WX    TMP DP  RH WIND       PRES   REMARKS
WHITE PLAINS   MOCLDY    65  57  75 NW9       29.93R
NEWBURGH       CLEAR     61  57  88 CALM      29.97R
MONTGOMERY     PTCLDY    60  54  80 CALM      29.96R
POUGHKEEPSIE   PTCLDY    61  58  90 CALM      29.95R
ALBANY         PTCLDY    61  51  70 NW5       29.98R
$$

NJZ001-105-106-008-010-013-015-019>022-104-250600-
NEW JERSEY

CITY           SKY/WX    TMP DP  RH WIND       PRES   REMARKS
NEWARK/LIBERTY MOCLDY    71  52  50 N10       29.92R
TETERBORO      MOCLDY    70  52  52 NW6       29.92R
CALDWELL       MOCLDY    66  51  58 CALM      29.94R
MORRISTOWN     PTCLDY    68  52  56 CALM      29.94S
SOMERVILLE     PTCLDY    64  54  69 NW5       29.93R
LINDEN         FAIR      72  53  50 N7        29.94S
SUSSEX         CLEAR     60  54  80 CALM      29.97R
ANDOVER          N/A     58  54  86 CALM      29.97R
TRENTON        PTCLDY    67  53  61 N7        29.93R
MILLVILLE      CLEAR     66  57  72 NW5       29.93R
ATLANTIC CITY  PTCLDY    65  62  90 N6        29.91S
WRIGHTSTOWN    PTCLDY    68  54  62 NW13      29.91R
TOMS RIVER     CLOUDY    66  55  68 NW5       29.92R
BELMAR         CLOUDY    70  54  56 NW6       29.92R
$$

PAZ047>061-062-071-250600-
EASTERN PENNSYLVANIA

CITY           SKY/WX    TMP DP  RH WIND       PRES   REMARKS
PHILADELPHIA   PTCLDY    70  52  52 N8        29.94R
ALLENTOWN      CLEAR     63  51  65 NW3       29.97R
SCRANTON       CLEAR     56  49  77 CALM      30.02R
$$

CTZ002-004>006-009-010-012-RIZ004-006-007-MAZ004-011-015-250600-
SOUTHERN NEW ENGLAND
 IN CT

CITY           SKY/WX    TMP DP  RH WIND       PRES   REMARKS
BRADLEY INTL   MOCLDY    64  56  75 N7        29.92R
HARTFORD       MOCLDY    67  55  65 N7        29.92R
DANBURY        MOCLDY    65  52  62 CALM      29.95R
WTRBRY/OXFORD  MOCLDY    63  54  72 N3        29.95S
BRIDGEPORT     MOCLDY    70  57  63 N7        29.91R
MERIDEN        MOCLDY    63  58  83 NW3       29.92R
NEW HAVEN      MOCLDY    68  57  68 N5        29.91R
CHESTER        FAIR      64  63  94 NW3       29.91S
GROTON         CLOUDY    66  65  96 CALM      29.89S
WILLIMANTIC    MOCLDY    64  60  87 NW3       29.92R

 IN RI

CITY           SKY/WX    TMP DP  RH WIND       PRES   REMARKS
PROVIDENCE     CLOUDY    67  61  81 CALM      29.91R
BLOCK ISLAND   CLOUDY    66  63  88 CALM      29.90S
WESTERLY       CLOUDY    68  64  87 CALM      29.91S

 IN MA

CITY           SKY/WX    TMP DP  RH WIND       PRES   REMARKS
BOSTON         MOCLDY    68  60  75 N6        29.90F
WORCESTER      MOCLDY    65  51  60 N6        29.94F
WESTFIELD      PTCLDY    61  56  83 N3        29.94R
PROVINCETOWN   PTCLDY    63  61  94 NW5       29.90S
NANTUCKET      CLEAR     62  61  96 N3        29.87F
$$

ANZ330-335-338-340-345-350-353-355-250600-
COASTAL MARINE OBSERVATIONS


STATION/POSITION TIME  SKY/WX   TEMP    WIND        PRES    VSBY  WAVE
                                AIR SEA DIR/SP/G                  HT/PER
                 (UTC)          (F)     (DEG/KT/KT) (MB)    (MI)  (FT/S)
NY HARB ENTRANCE NOT AVBL
4S FIRE IS       NOT AVBL
23SW MTP         0500            70 71              1011.5          2/ 8
HUDSON CANYON    0500            73 74  310/  8/ 10 1011.2          3/ 8
EXECUTION ROCKS  0500            71 72  360/ 12/ 14   N/A
WESTERN LI SOUND 0500            71     360/ 14/ 16   N/A           0
CENTRAL LI SOUND 0400            71 71   60/  2/  4   N/A           1
EASTERN LI SOUND 0400            67 66  340/  4/  4   N/A
ROBBINS REEF     0400            72     350/ 14/ 17   N/A
$$


>>>>>>>>>>>>>>>>>>>>>>>>>>>> KEY <<<<<<<<<<<<<<<<<<<<<<<<<<<
>                                                          <
>     SKY/WX - SKY CONDITION/PRESENT WEATHER               <
>     TMP    - TEMPERATURE IN FAHRENHEIT                   <
>     DP     - DEWPOINT IN FAHRENHEIT                      <
>     RH     - RELATIVE HUMIDITY IN PERCENT                <
>     WIND   - DIRECTION AND SPEED IN MPH                  <
>     PRES   - MEAN SEA LEVEL PRESSURE IN INCHES OF HG     <
>     WCI    - WIND CHILL INDEX                            <
>     VSB    - VISIBILITY IN MILES                         <
>     HX     - HEAT INDEX                                  <
>     TC     - TEMPERATURE IN CELSIUS                      <
>     VRB    - VARIABLE WIND DIRECTION                     <
>                                                          <
>>>>>>>>>>>>>>>>>>>>>>>>>>>> KEY <<<<<<<<<<<<<<<<<<<<<<<<<<<






U.S. Dept. of Commerce
NOAA National Weather Service
1325 East West Highway
Silver Spring, MD 20910
E-mail: w-nws.webmaster@noaa.gov
Page last modified: May 16, 2007
NATIONAL WEATHER SERVICE: for Safety, for Work, for Fun - FOR LIFE